Regional Weather Roundup
Issued by NWS Grand Forks, ND

Home | Current Version | Previous Version | Graphics & Text | Print | Product List | Glossary On
Versions: 1 2 3 4 5 6 7 8 9 10 11 12 13 14 15 16 17 18 19 20 21 22 23 24 25 26 27 28 29 30 31 32 33 34 35 36 37 38 39 40 41 42 43 44 45 46 47 48 49 50
000
ASUS43 KFGF 172131
RWRFGF
PRAIRIE TO PINES  WEATHER ROUNDUP
NATIONAL WEATHER SERVICE EASTERN NORTH DAKOTA/GRAND FORKS ND
400 PM CDT TUE OCT 17 2017

 **SATELLITE DATA USED TO AUGMENT SKY COVER AT AUTOMATED STATIONS**
 *****  WEATHER ACROSS EASTERN NORTH DAKOTA  *****

CITY           SKY/WX    TMP DP  RH WIND       PRES   REMARKS
GRAND FORKS    FAIR      80  32  17 SW17G28   29.70F
GRAND FRKS AFB FAIR      79  29  16 SW21G28   29.70F
DEVILS LAKE    FAIR      72  34  24 SW17      29.70F
FARGO          FAIR      76  39  26 S16G24    29.78F
WAHPETON ARPT  NOT AVBL
$$

 ***** WEATHER ACROSS CENTRAL AND WESTERN NORTH DAKOTA  *****

CITY           SKY/WX    TMP DP  RH WIND       PRES   REMARKS
BISMARCK       FAIR      80  28  15 SW15      29.77F
MINOT          FAIR      76  30  18 SW21G29   29.67F
JAMESTOWN      FAIR      76  27  16 W15G23    29.76F
MINOT AFB      FAIR      74  31  20 W18G25    29.64F
GARRISON         N/A     75  32  20 W22G28    29.72F
WILLISTON      FAIR      77  27  15 SW18G28   29.65F
DICKINSON      FAIR      76  24  14 W20G26    29.76F
HETTINGER      FAIR      77  23  13 W18       29.84F
$$

 *****  OTHER AIRPORT OBSERVATIONS IN OUR AREA  *****

CITY           SKY/WX    TMP DP  RH WIND       PRES   REMARKS
WALHALLA       FAIR     N/A N/A N/A SW14      29.64F
GRAFTON AIRPOR FAIR      75  32  20 SW17G24   29.68F
VALLEY CITY AR FAIR      77  34  20 SW15G24   29.78F
CANDO          FAIR      75  32  20 W20G28    29.69S
CAVALIER APRT  FAIR      75  34  22 SW13G22   29.65F
GWINNER        CLEAR     77  39  25 SW15G21   29.80F
SHEYENNE NWR     N/A     75  40  28 SW14      29.95S
ROLLA          FAIR      72  30  21 SW21G29   29.65F
 ***** THE ABOVE OBSERVATIONS ARE NON NWS ARE NOT QUALITY
       CONTROLLED AND MAY MIS-REPORT RAIN FOR SNOW...
$$

  *****  WEATHER ACROSS NORTHERN MINNESOTA  *****

CITY           SKY/WX    TMP DP  RH WIND       PRES   REMARKS
FLAG ISLAND    FAIR      57  46  67 S9        29.69F
WARROAD        FAIR      72  41  33 S12G17    29.71F
ROSEAU         FAIR      72  39  30 S15G25    29.70F
HALLOCK        FAIR      73  34  23 S16       29.67F
THF RVR FALLS  FAIR      72  39  30 S22G29    29.75F
BAUDETTE       FAIR      71  35  26 S17G25    29.74F
WASKISH        PTSUNNY   72  37  28 S6        29.78F
CROOKSTON      FAIR      75  37  25 SW21      29.72F
STEPHEN NDAWN    N/A     75  36  23 SW13        N/A
GREENBUSH NDAW   N/A     72  39  30 S20         N/A
$$
  *****  WEATHER ACROSS CENTRAL AND WEST MINNESOTA  *****

CITY           SKY/WX    TMP DP  RH WIND       PRES   REMARKS
FOSSTON        FAIR      72  34  25 S21G29    29.78F
BEMIDJI        FAIR      70  37  30 S13       29.81F
PARK RAPIDS    FAIR      70  39  32 S13       29.85F
ELBOW LAKE     FAIR      73  40  30 W14       29.86F HAZE
WADENA         FAIR      70  41  35 SW8       29.87F
DETROIT LAKES  FAIR      70  39  32 S14       29.84F
MOORHEAD       FAIR      75  37  25 S13G18    29.80F
FERGUS FALLS   FAIR      73  43  33 SW12      29.84F
MORRIS MN      FAIR      75  41  29 SW14      29.87F
STAPLES        FAIR      68  34  28 SW9       29.88F
$$
  *****  WEATHER ELSEWHERE ACROSS MINNESOTA  *****

CITY           SKY/WX    TMP DP  RH WIND       PRES   REMARKS
DULUTH         FAIR      67  37  33 SW12      29.89F
INTRNTL FALLS  FAIR      71  35  26 S9G18     29.79F
ELY            FAIR      68  32  26 SW9G16    29.86F
CLOQUET        FAIR      68  36  30 SW7       29.90S
WHEATON        FAIR      77  30  18 SW13G21   29.85F
BRAINERD       FAIR      69  38  32 SW14      29.89F
HIBBING        FAIR      68  34  28 SW7       29.87F
ALEXANDRIA     FAIR      72  37  28 SW14G20   29.91F
SAINT CLOUD    FAIR      73  37  27 SW12      29.92S
MINNEAPOLIS    FAIR      73  43  33 S7        29.93F
$$

  *****  WEATHER ACROSS SOUTH DAKOTA  *****

CITY           SKY/WX    TMP DP  RH WIND       PRES   REMARKS
SIOUX FALLS    FAIR      77  45  32 SW6       29.95F
BROOKINGS      FAIR      76  38  25 SW13      29.93F
WATERTOWN      FAIR      73  41  31 SW16      29.89F
HURON          FAIR      78  40  25 MISG      29.89F
SISSETON         N/A     77  39  25 SW18      29.83F
ABERDEEN       FAIR      79  35  20 SW13      29.85F
MITCHELL       FAIR      80  37  21 SW9       29.92F
PIERRE         FAIR      79  36  21 SE8       29.86F
MOBRIDGE       FAIR      82  28  14 SW12      29.80F
RAPID CITY     FAIR      76  27  16 SE14      29.89F
$$

  *****  SOME WEATHER IN NEARBY STATES *****

CITY           SKY/WX    TMP DP  RH WIND       PRES   REMARKS
GLASGOW MT     FAIR      78  21  12 SW21G35   29.62F
GREAT FALLS MT FAIR      73  18  12 W39G53    29.69F
CHEYENNE WY    FAIR      72  10   9 W18G24    30.14F
SCOTTSBLUFF NE FAIR      78  16   9 W8        30.00F
OMAHA NE       FAIR      72  44  36 S10       30.01F
DES MOINES IA  FAIR      72  43  35 S17       30.04S
DAVENPORT IA   FAIR      70  43  37 S14       30.12F
CHICAGO IL     FAIR      70  38  31 SW16      30.12S
EAU CLAIRE WI  FAIR      71  43  36 SW8       29.96S
LA CROSSE WI   FAIR      72  46  39 S12       29.99F
$$

  *****  SOME NATIONAL WEATHER *****

CITY           SKY/WX    TMP DP  RH WIND       PRES   REMARKS
LA GUARDIA NY  FAIR      60  29  30 SW6       30.24F
RALEIGH NC     FAIR      63  35  35 NE9       30.29F
ATLANTA GA     FAIR      68  40  35 E5        30.25S
NEW ORLEANS LA FAIR      74  59  59 NE7       30.14F
OKLAHOMA CITY  FAIR      73  43  33 S12       30.14F
ALBUQUERQUE NM PTSUNNY   72  26  18 SW3       30.24F
SALT LAKE CITY PTSUNNY   69  24  18 W3        30.17F
LOS ANGELES CA FAIR      79  57  46 W13       29.95F
BOISE ID       FAIR      62  30  29 NW5       30.11F
SEATTLE WA     PTSUNNY   59  46  62 SW20G26   30.06R
$$

*** WEATHER ACROSS MANITOBA...SASKATCHEWAN AND ONTARIO ***
                ***ONTARIO***

CITY           SKY/WX    TMP DP  RH WIND       PRES   REMARKS
GERALDTON      PTSUNNY   54  32  43 W12G18    29.88R
THUNDER BAY    PTSUNNY   64  36  34 SE5       29.88S
SIOUX LOOKOUT  CLOUDY    59  36  41 SE7       29.79F
TORONTO        MOSUNNY   66  43  42 SW16G28   30.03S
BIG TROUT LK   SUNNY     39  30  70 W7        29.84S
PICKLE LAKE    PTSUNNY   43  32  65 NE3       29.85S
DRYDEN         SUNNY     64  36  34 S13G20    29.76F
KENORA         PTSUNNY   64  39  39 S13G23    29.71F
$$
                *** MANITOBA***

CITY           SKY/WX    TMP DP  RH WIND       PRES   REMARKS
BRANDON        PTSUNNY   70  36  28 SW14      29.58F
DAUPHIN        SUNNY     70  34  26 SW16G22   29.51F
ISLAND LAKE    PTSUNNY   43  34  70 SE13G18   29.73F
PILOT MOUND      N/A     72  32  23 SW18        N/A
THE PAS        CLOUDY    54  39  58 SE18G25   29.44F
THOMPSON       PTSUNNY   39  32  75 E6        29.63F
WINNIPEG       PTSUNNY   68  36  30 SW18      29.62F
LYNN LAKE      LGT RAIN  36  34  93 E13G18    29.47F
CHURCHILL      PTSUNNY   27  23  86 W5        29.80F WCI  21
GILLAM         PTSUNNY   32  28  86 SE7       29.77F
$$
                ***SASKATCHEWAN***

CITY           SKY/WX    TMP DP  RH WIND       PRES   REMARKS
ESTEVAN        MOSUNNY   73  28  19 SW21G29   29.59F
KINDERSLEY     MOSUNNY   73  28  19 SW43G53   29.26F
LLOYDMINSTER   CLOUDY    61  39  44 S17       29.10F
PRINCE ALBERT  PTSUNNY   64  37  36 SE6       29.29F
REGINA         MOSUNNY   75  28  17 SW25G36   29.45F
YORKTON        SUNNY     70  34  26 SW16G23   29.46F
N. BATTLEFORD  SUNNY     70  37  30 S21G33    29.21F
LA RONGE       CLOUDY    52  39  62 E9        29.27F
SASKATOON      MOSUNNY   73  36  25 S21G29    29.29F
SWIFT CURRENT  SUNNY     73  19  13 SW39G47   29.42F
$$
NOTE: THESE ARE AUTOMATED STATIONS WITH LIMITED QUALITY CONTROL
      "FAIR" INDICATES FEW OR NO CLOUDS BELOW 12,000 FEET WITH NO
      SIGNIFICANT WEATHER AND/OR OBSTRUCTIONS TO VISIBILITY.
      SKY/WX - SKY CONDITION AND SIGNIFICANT WEATHER.
      TMP - AIR TEMPERATURE.    DP   - DEWPOINT TEMPERATURE.
      RH  - RELATIVE HUMIDITY.  PRES - PRESSURE.
      HX  - HEAT INDEX.         WCI  - WIND CHILL INDEX.
$




USA.gov is the U.S. government's official web portal to all federal, state and local government web resources and services.